Poughkeepsie, NY

11:06 AM EDT on August 17, 2017 (GMT -0400)
Dutchess County

Weather History for KPOU - April, 2013

Change the Weather History Date:

Thursday, April 11, 2013

  Actual Average Record
Temperature  
Mean Temperature 47 °F 47 °F  
Max Temperature 55 °F 59 °F 86 °F (2017)
Min Temperature 38 °F 35 °F 21 °F (2007)
Degree Days  
Heating Degree Days 18 18  
Month to date heating degree days 196 220  
Since 1 July heating degree days 5185 5665  
Cooling Degree Days 0 0  
Month to date cooling degree days 0 0  
Year to date cooling degree days 0 0  
Moisture  
Dew Point 37 °F    
Average Humidity 73    
Maximum Humidity 100    
Minimum Humidity 46    
Precipitation  
Precipitation T in 0.13 in 1.38 in (1958)
Month to date precipitation 0.26 1.41  
Year to date precipitation 5.40 10.72  
Sea Level Pressure  
Sea Level Pressure 29.97 in    
Wind  
Wind Speed 9 mph (North)    
Max Wind Speed 17 mph    
Max Gust Speed 22 mph    
Visibility 10 miles    
Events Rain    
T = Trace of Precipitation, MM = Missing Value Source: NWS Daily Summary

Daily Weather History Graph

Daily Weather History Graph

Search for Another Location

Airport or City:

Trip Planner

Search our weather history database for the weather conditions in past years. The results will help you decide how hot, cold, wet, or windy it might be!

Date:

Astronomy

Apr. 11, 2013 Rise Set
Actual Time 6:21 AM EDT 7:32 PM EDT
Civil Twilight 5:53 AM EDT 8:00 PM EDT
Nautical Twilight 5:18 AM EDT 8:34 PM EDT
Astronomical Twilight 4:43 AM EDT 9:10 PM EDT
Moon 6:50 AM EDT (4/11) 9:05 PM EDT (4/11)
Length of Visible Light 14h 07m
Length of Day
13h 10m
New Moon, 2% of the Moon is Illuminated
Apr 11
New Moon
Apr 18
First Quarter
Apr 25
Full
May 2
Last Quarter
May 9
New

Hourly Weather History & Observations

Time (EDT) Temp. Windchill Dew Point Humidity Pressure Visibility Wind Dir Wind Speed Gust Speed Precip Events Conditions
12:09 AM 55.4 °F - 53.6 °F 94% 29.83 in 3.0 mi North 3.5 mph - N/A   Overcast
12:53 AM 54.0 °F - 53.1 °F 97% 29.83 in 6.0 mi North 6.9 mph - N/A   Overcast
1:50 AM 51.8 °F - 48.2 °F 88% 29.85 in 10.0 mi North 9.2 mph - N/A   Overcast
1:53 AM 51.1 °F - 48.9 °F 92% 29.84 in 10.0 mi North 10.4 mph - N/A   Overcast
2:35 AM 48.2 °F - 46.4 °F 93% 29.81 in 10.0 mi NNE 10.4 mph - N/A   Overcast
2:44 AM 48.2 °F - 46.4 °F 93% 29.82 in 10.0 mi NNE 9.2 mph - N/A   Overcast
2:53 AM 48.9 °F - 46.0 °F 90% 29.83 in 10.0 mi North 4.6 mph - N/A   Overcast
3:53 AM 48.0 °F - 45.0 °F 89% 29.86 in 10.0 mi NNE 8.1 mph - N/A   Overcast
4:20 AM 48.2 °F - 44.6 °F 87% 29.87 in 10.0 mi NNE 11.5 mph - N/A   Overcast
4:53 AM 46.9 °F - 44.1 °F 90% 29.87 in 10.0 mi North 9.2 mph - N/A   Overcast
5:53 AM 46.9 °F - 43.0 °F 86% 29.91 in 10.0 mi North 8.1 mph - N/A   Overcast
6:21 AM 46.4 °F 42.4 °F 42.8 °F 87% 29.93 in 10.0 mi NNE 8.1 mph - N/A   Overcast
6:53 AM 46.0 °F 41.9 °F 42.1 °F 86% 29.93 in 10.0 mi NNE 8.1 mph - 0.00 in Rain Light Rain
7:23 AM 46.4 °F 41.9 °F 42.8 °F 87% 29.95 in 10.0 mi NNE 9.2 mph - 0.00 in   Overcast
7:53 AM 46.0 °F 43.1 °F 41.0 °F 83% 29.95 in 10.0 mi NE 5.8 mph - 0.00 in   Overcast
8:30 AM 46.4 °F 42.9 °F 41.0 °F 81% 29.99 in 10.0 mi North 6.9 mph - N/A   Overcast
8:37 AM 46.4 °F 42.9 °F 41.0 °F 81% 29.99 in 10.0 mi North 6.9 mph - N/A   Overcast
8:53 AM 48.0 °F - 41.0 °F 77% 29.97 in 10.0 mi North 9.2 mph - N/A   Overcast
9:53 AM 50.0 °F - 41.0 °F 71% 29.97 in 10.0 mi NNE 9.2 mph - N/A   Overcast
10:53 AM 52.0 °F - 39.0 °F 61% 29.99 in 10.0 mi North 9.2 mph - N/A   Overcast
11:53 AM 52.0 °F - 37.0 °F 57% 29.99 in 10.0 mi North 12.7 mph - N/A   Overcast
1:53 PM 52.0 °F - 34.0 °F 50% 30.01 in 10.0 mi North 12.7 mph 19.6 mph N/A   Overcast
2:53 PM 50.0 °F - 32.0 °F 50% 30.01 in 10.0 mi North 11.5 mph 21.9 mph N/A   Overcast
3:53 PM 50.0 °F - 30.0 °F 46% 29.99 in 10.0 mi North 12.7 mph - N/A   Overcast
4:53 PM 48.9 °F - 28.0 °F 44% 29.99 in 10.0 mi North 10.4 mph - N/A   Overcast
5:53 PM 46.9 °F - 28.0 °F 48% 30.01 in 10.0 mi North 13.8 mph - N/A   Overcast
6:10 PM 46.4 °F 40.7 °F 26.6 °F 46% 30.02 in 10.0 mi North 12.7 mph - N/A   Overcast
6:27 PM 46.4 °F 41.9 °F 26.6 °F 46% 30.03 in 10.0 mi North 9.2 mph - N/A   Overcast
6:39 PM 44.6 °F 39.2 °F 24.8 °F 46% 30.03 in 10.0 mi North 10.4 mph - N/A   Overcast
6:53 PM 45.0 °F 41.2 °F 26.1 °F 48% 30.03 in 10.0 mi North 6.9 mph - N/A   Overcast
7:53 PM 43.0 °F 36.4 °F 26.1 °F 51% 30.04 in 10.0 mi North 12.7 mph - N/A   Overcast
8:24 PM 42.8 °F 38.0 °F 26.6 °F 53% 30.05 in 10.0 mi NNE 8.1 mph - N/A   Overcast
8:53 PM 41.0 °F 34.3 °F 27.0 °F 57% 30.06 in 10.0 mi NNE 11.5 mph - N/A   Overcast
9:53 PM 39.9 °F 34.5 °F 27.0 °F 60% 30.08 in 10.0 mi North 8.1 mph - N/A   Overcast
10:42 PM 39.2 °F 33.6 °F 28.4 °F 65% 30.08 in 10.0 mi North 8.1 mph - N/A   Overcast
10:50 PM 39.2 °F 34.2 °F 28.4 °F 65% 30.09 in 10.0 mi North 6.9 mph - N/A   Overcast
10:53 PM 39.0 °F 33.4 °F 28.9 °F 67% 30.09 in 10.0 mi North 8.1 mph - N/A   Overcast
11:31 PM 37.4 °F 32.1 °F 30.2 °F 75% 30.09 in 10.0 mi North 6.9 mph - N/A   Overcast
11:53 PM 37.9 °F 33.5 °F 30.0 °F 73% 30.09 in 10.0 mi North 5.8 mph - N/A   Overcast